| time (UTC) | temp F | wind direction | speed MPH | gust MPH | rain 1hr in | rain 24hr in | rain mn in | humidity % | barometer mb |
| 20260902025003 | 82 | 206 | 3.0 | 6.0 | 0.00 | 0.00 | 0.00 | 84 | 1015.4 |
| 20260902023003 | 82 | 191 | 2.0 | 5.0 | 0.00 | 0.00 | 0.00 | 83 | 1015.5 |
| 20260902022003 | 82 | 194 | 2.0 | 5.0 | 0.00 | 0.00 | 0.00 | 82 | 1015.3 |
| 20260902021003 | 83 | 202 | 3.0 | 7.0 | 0.00 | 0.00 | 0.00 | 81 | 1015.4 |
| 20260902020003 | 83 | 205 | 4.0 | 7.0 | 0.00 | 0.00 | 0.00 | 80 | 1015.4 |
| 20260902015004 | 84 | 196 | 2.0 | 5.0 | 0.00 | 0.00 | 0.00 | 80 | 1015.3 |
| 20260902014003 | 84 | 219 | 2.0 | 5.0 | 0.00 | 0.00 | 0.00 | 79 | 1015.1 |
| 20260902013004 | 84 | 219 | 2.0 | 5.0 | 0.00 | 0.00 | 0.00 | 80 | 1015.4 |
| 20260902012004 | 85 | 195 | 1.0 | 5.0 | 0.00 | 0.00 | 0.00 | 79 | 1015.2 |
| 20260902011004 | 85 | 214 | 2.0 | 5.0 | 0.00 | 0.00 | 0.00 | 78 | 1015.0 |
| 20260902010002 | 85 | 233 | 1.0 | 3.0 | 0.00 | 0.00 | 0.00 | 78 | 1014.8 |
| 20260902005003 | 85 | 227 | 1.0 | 5.0 | 0.00 | 0.00 | 0.00 | 78 | 1014.7 |
| 20260902004003 | 85 | 215 | 1.0 | 5.0 | 0.00 | 0.00 | 0.00 | 77 | 1014.9 |
| 20260902003003 | 86 | 277 | 2.0 | 3.0 | 0.00 | 0.00 | 0.00 | 76 | 1014.7 |
| 20260902001003 | 86 | 188 | 2.0 | 6.0 | 0.00 | 0.00 | 0.00 | 75 | 1014.4 |
| 20260901235003 | 87 | 222 | 3.0 | 8.0 | 0.00 | 0.00 | 0.00 | 72 | 1014.5 |
| 20260901233003 | 88 | 206 | 4.0 | 7.0 | 0.00 | 0.00 | 0.00 | 68 | 1014.4 |
| 20260901231003 | 90 | 227 | 5.0 | 9.0 | 0.00 | 0.00 | 0.00 | 65 | 1014.5 |
| 20260901230004 | 91 | 233 | 4.0 | 12.0 | 0.00 | 0.00 | 0.00 | 64 | 1014.8 |
| 20260901224003 | 90 | 201 | 5.0 | 9.0 | 0.00 | 0.00 | 0.00 | 66 | 1014.7 |
| 20260901223004 | 90 | 199 | 3.0 | 10.0 | 0.00 | 0.00 | 0.00 | 66 | 1014.8 |
| 20260901222003 | 90 | 183 | 3.0 | 7.0 | 0.00 | 0.00 | 0.00 | 66 | 1014.8 |
| 20260901221003 | 90 | 210 | 3.0 | 9.0 | 0.00 | 0.00 | 0.00 | 64 | 1014.8 |
| 20260901220003 | 91 | 193 | 6.0 | 13.0 | 0.00 | 0.00 | 0.00 | 63 | 1014.5 |
| 20260901215003 | 92 | 273 | 5.0 | 9.0 | 0.00 | 0.00 | 0.00 | 61 | 1014.8 |
| 20260901214003 | 92 | 245 | 4.0 | 8.0 | 0.00 | 0.00 | 0.00 | 61 | 1014.9 |
| 20260901212004 | 92 | 213 | 2.0 | 7.0 | 0.00 | 0.00 | 0.00 | 63 | 1014.8 |
| 20260901211003 | 90 | 193 | 1.0 | 7.0 | 0.00 | 0.00 | 0.00 | 67 | 1015.0 |
| 20260901210003 | 91 | 229 | 3.0 | 8.0 | 0.00 | 0.00 | 0.00 | 64 | 1015.0 |
| 20260901205003 | 91 | 220 | 3.0 | 8.0 | 0.00 | 0.00 | 0.00 | 64 | 1015.1 |
| 20260901204003 | 91 | 215 | 5.0 | 9.0 | 0.00 | 0.00 | 0.00 | 63 | 1015.0 |
| 20260901203003 | 91 | 226 | 3.0 | 8.0 | 0.00 | 0.00 | 0.00 | 64 | 1014.9 |
| 20260901201003 | 91 | 262 | 5.0 | 9.0 | 0.00 | 0.00 | 0.00 | 66 | 1015.4 |
| 20260901200004 | 91 | 222 | 5.0 | 7.0 | 0.00 | 0.00 | 0.00 | 65 | 1015.3 |
| 20260901195003 | 90 | 200 | 3.0 | 6.0 | 0.00 | 0.00 | 0.00 | 68 | 1015.3 |
| 20260901193004 | 90 | 191 | 3.0 | 9.0 | 0.00 | 0.00 | 0.00 | 66 | 1015.7 |
| 20260901192003 | 91 | 259 | 5.0 | 9.0 | 0.00 | 0.00 | 0.00 | 66 | 1015.6 |
| 20260901191004 | 91 | 230 | 4.0 | 8.0 | 0.00 | 0.00 | 0.00 | 65 | 1015.8 |
| 20260901190003 | 90 | 307 | 2.0 | 7.0 | 0.00 | 0.00 | 0.00 | 68 | 1015.8 |
| 20260901185003 | 89 | 269 | 4.0 | 8.0 | 0.00 | 0.00 | 0.00 | 68 | 1015.9 |
| 20260901184004 | 91 | 199 | 3.0 | 6.0 | 0.00 | 0.00 | 0.00 | 68 | 1015.8 |
| 20260901183004 | 89 | 272 | 4.0 | 7.0 | 0.00 | 0.00 | 0.00 | 73 | 1015.9 |
| 20260901182004 | 89 | 40 | 1.0 | 8.0 | 0.00 | 0.00 | 0.00 | 74 | 1015.9 |
| 20260901181003 | 87 | 290 | 3.0 | 9.0 | 0.00 | 0.00 | 0.00 | 76 | 1016.1 |
| 20260901180003 | 86 | 282 | 6.0 | 9.0 | 0.00 | 0.00 | 0.00 | 80 | 1016.0 |
| 20260901174004 | 87 | 343 | 5.0 | 9.0 | 0.00 | 0.00 | 0.00 | 79 | 1016.5 |
| 20260901172003 | 84 | 310 | 3.0 | 7.0 | 0.00 | 0.00 | 0.00 | 84 | 1016.8 |
| 20260901171004 | 84 | 281 | 5.0 | 10.0 | 0.00 | 0.00 | 0.00 | 84 | 1016.7 |
| 20260901170003 | 86 | 296 | 5.0 | 8.0 | 0.00 | 0.00 | 0.00 | 81 | 1016.7 |
| 20260901165004 | 85 | 301 | 1.0 | 6.0 | 0.00 | 0.00 | 0.00 | 83 | 1016.9 |
| 20260901164003 | 85 | 6 | 1.0 | 7.0 | 0.00 | 0.00 | 0.00 | 82 | 1016.9 |
| 20260901162004 | 84 | 301 | 2.0 | 9.0 | 0.00 | 0.00 | 0.00 | 85 | 1017.2 |
| 20260901161004 | 83 | 304 | 2.0 | 7.0 | 0.00 | 0.00 | 0.00 | 85 | 1017.0 |
| 20260901160004 | 82 | 194 | 3.0 | 6.0 | 0.00 | 0.00 | 0.00 | 87 | 1017.2 |
| 20260901155003 | 81 | 295 | 2.0 | 7.0 | 0.00 | 0.00 | 0.00 | 88 | 1017.3 |
| 20260901153004 | 80 | 296 | 2.0 | 5.0 | 0.00 | 0.00 | 0.00 | 90 | 1017.1 |
| 20260901151003 | 80 | 254 | 2.0 | 6.0 | 0.00 | 0.00 | 0.00 | 90 | 1017.0 |
| 20260901150003 | 79 | 276 | 1.0 | 5.0 | 0.00 | 0.00 | 0.00 | 92 | 1016.9 |
| 20260901145003 | 79 | 240 | 2.0 | 5.0 | 0.00 | 0.00 | 0.00 | 92 | 1016.9 |
| 20260901144003 | 78 | 300 | 3.0 | 6.0 | 0.00 | 0.00 | 0.00 | 94 | 1017.1 |
| 20260901143003 | 78 | 233 | 1.0 | 5.0 | 0.00 | 0.00 | 0.00 | 95 | 1017.0 |
| 20260901142003 | 77 | 205 | 2.0 | 3.0 | 0.00 | 0.00 | 0.00 | 96 | 1016.8 |
| 20260901141003 | 76 | 170 | 1.0 | 2.0 | 0.00 | 0.00 | 0.00 | 97 | 1017.0 |
| 20260901140003 | 76 | 336 | 2.0 | 3.0 | 0.00 | 0.00 | 0.00 | 98 | 1016.8 |
| 20260901135003 | 75 | 32 | 1.0 | 3.0 | 0.00 | 0.00 | 0.00 | 99 | 1016.8 |
| 20260901134003 | 75 | 279 | 1.0 | 5.0 | 0.00 | 0.00 | 0.00 | 99 | 1016.7 |
| 20260901132003 | 74 | 157 | 1.0 | 2.0 | 0.00 | 0.00 | 0.00 | 99 | 1016.8 |
| 20260901131003 | 74 | 134 | 1.0 | 2.0 | 0.00 | 0.00 | 0.00 | 99 | 1017.0 |
| 20260901130003 | 74 | 253 | 1.0 | 5.0 | 0.00 | 0.00 | 0.00 | 99 | 1016.8 |
| 20260901125003 | 74 | 291 | 1.0 | 6.0 | 0.00 | 0.00 | 0.00 | 99 | 1017.1 |
| 20260901124003 | 74 | 285 | 2.0 | 5.0 | 0.00 | 0.00 | 0.00 | 99 | 1017.0 |
| 20260901123004 | 74 | 3 | 2.0 | 3.0 | 0.00 | 0.00 | 0.00 | 99 | 1017.0 |
| 20260901122003 | 73 | 217 | 1.0 | 5.0 | 0.00 | 0.00 | 0.00 | 99 | 1016.9 |
| 20260901120003 | 73 | 177 | 2.0 | 3.0 | 0.00 | 0.00 | 0.00 | 99 | 1016.7 |
| 20260901115004 | 73 | 124 | 2.0 | 3.0 | 0.00 | 0.00 | 0.00 | 99 | 1016.5 |
| 20260901114003 | 73 | 264 | 2.0 | 6.0 | 0.00 | 0.00 | 0.00 | 99 | 1016.2 |
| 20260901113003 | 73 | 29 | 4.0 | 6.0 | 0.00 | 0.00 | 0.00 | 99 | 1016.2 |
| 20260901112003 | 73 | 311 | 2.0 | 5.0 | 0.00 | 0.00 | 0.00 | 99 | 1015.9 |
| 20260901111003 | 73 | 346 | 1.0 | 3.0 | 0.00 | 0.00 | 0.00 | 99 | 1016.0 |
| 20260901110003 | 73 | 160 | 1.0 | 3.0 | 0.00 | 0.00 | 0.00 | 99 | 1015.6 |
| 20260901105003 | 73 | 258 | 1.0 | 3.0 | 0.00 | 0.00 | 0.00 | 99 | 1015.6 |
| 20260901104003 | 73 | 186 | 1.0 | 3.0 | 0.00 | 0.00 | 0.00 | 99 | 1015.6 |
| 20260901103003 | 73 | 228 | 1.0 | 2.0 | 0.00 | 0.00 | 0.00 | 99 | 1015.6 |
| 20260901101003 | 73 | 120 | 1.0 | 2.0 | 0.00 | 0.00 | 0.00 | 99 | 1015.6 |
| 20260901100003 | 73 | 108 | 1.0 | 2.0 | 0.00 | 0.00 | 0.00 | 99 | 1015.6 |
| 20260901095003 | 73 | 98 | 1.0 | 3.0 | 0.00 | 0.03 | 0.00 | 99 | 1015.6 |
| 20260901094004 | 73 | 138 | 1.0 | 2.0 | 0.00 | 0.04 | 0.00 | 99 | 1015.7 |
| 20260901093004 | 73 | 195 | 0.0 | 1.0 | 0.00 | 0.04 | 0.00 | 99 | 1015.8 |
| 20260901092003 | 74 | 143 | 1.0 | 2.0 | 0.00 | 0.05 | 0.00 | 99 | 1015.7 |
| 20260901091003 | 74 | 179 | 1.0 | 2.0 | 0.00 | 0.09 | 0.00 | 99 | 1015.6 |
| 20260901090003 | 74 | 130 | 1.0 | 2.0 | 0.00 | 0.09 | 0.00 | 99 | 1015.4 |
| 20260901085003 | 74 | 129 | 1.0 | 2.0 | 0.00 | 0.09 | 0.00 | 99 | 1015.4 |
| 20260901084004 | 74 | 193 | 2.0 | 5.0 | 0.00 | 0.09 | 0.00 | 99 | 1015.4 |
| 20260901083004 | 74 | 180 | 2.0 | 3.0 | 0.00 | 0.09 | 0.00 | 98 | 1015.3 |
| 20260901081004 | 74 | 196 | 1.0 | 3.0 | 0.00 | 0.09 | 0.00 | 98 | 1015.3 |
| 20260901075003 | 74 | 191 | 2.0 | 3.0 | 0.00 | 0.09 | 0.00 | 98 | 1015.3 |
| 20260901074003 | 74 | 197 | 1.0 | 2.0 | 0.00 | 0.09 | 0.00 | 98 | 1015.3 |
| 20260901072003 | 75 | 184 | 1.0 | 2.0 | 0.00 | 0.09 | 0.00 | 97 | 1015.3 |
| 20260901070003 | 75 | 128 | 0.0 | 3.0 | 0.00 | 0.09 | 0.00 | 97 | 1015.1 |
| 20260901065003 | 75 | 131 | 1.0 | 2.0 | 0.00 | 0.09 | 0.00 | 97 | 1015.1 |
| 20260901064004 | 75 | 124 | 0.0 | 3.0 | 0.00 | 0.09 | 0.00 | 96 | 1015.1 |
| 20260901063004 | 76 | 167 | 2.0 | 3.0 | 0.00 | 0.09 | 0.00 | 96 | 1015.0 |
| 20260901062003 | 76 | 109 | 1.0 | 2.0 | 0.00 | 0.09 | 0.00 | 96 | 1015.3 |
| 20260901061003 | 76 | 125 | 0.0 | 3.0 | 0.00 | 0.10 | 0.00 | 95 | 1015.5 |
| 20260901060003 | 76 | 176 | 2.0 | 3.0 | 0.00 | 0.11 | 0.00 | 95 | 1015.3 |
| 20260901054004 | 76 | 157 | 1.0 | 3.0 | 0.00 | 0.11 | 0.00 | 95 | 1015.3 |
| 20260901053003 | 77 | 180 | 0.0 | 3.0 | 0.00 | 0.11 | 0.00 | 94 | 1015.3 |
| 20260901052004 | 76 | 153 | 1.0 | 5.0 | 0.00 | 0.11 | 0.00 | 94 | 1015.1 |
| 20260901051006 | 77 | 165 | 1.0 | 3.0 | 0.00 | 0.11 | 0.00 | 94 | 1015.0 |
| 20260901050004 | 77 | 193 | 0.0 | 3.0 | 0.00 | 0.11 | 0.00 | 93 | 1015.0 |
| 20260901045004 | 77 | 164 | 1.0 | 5.0 | 0.00 | 0.11 | 0.11 | 93 | 1015.3 |
| 20260901044004 | 78 | 210 | 2.0 | 6.0 | 0.00 | 0.11 | 0.11 | 93 | 1015.3 |
| 20260901043003 | 78 | 209 | 2.0 | 6.0 | 0.00 | 0.11 | 0.11 | 92 | 1015.3 |
| 20260901042003 | 78 | 200 | 1.0 | 5.0 | 0.00 | 0.11 | 0.11 | 92 | 1015.3 |
| 20260901041003 | 78 | 221 | 2.0 | 3.0 | 0.00 | 0.11 | 0.11 | 92 | 1015.3 |
| 20260901040003 | 79 | 216 | 2.0 | 5.0 | 0.00 | 0.11 | 0.11 | 92 | 1015.4 |
| 20260901035003 | 79 | 188 | 2.0 | 6.0 | 0.00 | 0.11 | 0.11 | 91 | 1015.3 |
| 20260901034004 | 79 | 197 | 2.0 | 6.0 | 0.00 | 0.11 | 0.11 | 91 | 1015.2 |
| 20260901033003 | 79 | 202 | 2.0 | 7.0 | 0.00 | 0.11 | 0.11 | 90 | 1015.0 |
| 20260901032004 | 79 | 160 | 1.0 | 5.0 | 0.00 | 0.11 | 0.11 | 90 | 1015.3 |